| time (UTC) | temp F | wind direction | speed knots | gust knots | rain 1hr in | rain 24hr in | rain mn in | humidity % | barometer mb |
| 20260506061802 | 58 | 175 | 0.0 | 0.9 | 0.00 | 0.00 | 0.00 | 95 | 1013.9 |
| 20260506060902 | 58 | 175 | 0.0 | 0.9 | 0.00 | 0.00 | 0.00 | 96 | 1014.0 |
| 20260506050902 | 58 | 0 | 0.0 | 0.0 | 0.00 | 0.00 | 0.00 | 93 | 1014.9 |
| 20260506044523 | 59 | 0 | 0.0 | 0.0 | 0.00 | 0.00 | 0.00 | 92 | 1014.9 |
| 20260506043602 | 59 | 0 | 0.0 | 0.0 | 0.00 | 0.00 | 0.00 | 92 | 1015.0 |
| 20260506042702 | 59 | 0 | 0.0 | 0.0 | 0.00 | 0.00 | 0.00 | 91 | 1015.0 |
| 20260506041802 | 60 | 0 | 0.0 | 0.0 | 0.00 | 0.00 | 0.00 | 91 | 1015.0 |
| 20260506040923 | 60 | 175 | 0.0 | 1.7 | 0.00 | 0.00 | 0.00 | 90 | 1015.1 |
| 20260506040002 | 60 | 175 | 0.0 | 0.9 | 0.00 | 0.00 | 0.00 | 90 | 1015.1 |
| 20260506035402 | 60 | 0 | 0.0 | 0.0 | 0.00 | 0.00 | 0.00 | 90 | 1015.3 |
| 20260506034502 | 61 | 0 | 0.0 | 0.0 | 0.00 | 0.00 | 0.00 | 88 | 1015.3 |
| 20260506033602 | 61 | 0 | 0.0 | 0.0 | 0.00 | 0.00 | 0.00 | 88 | 1015.5 |
| 20260506032723 | 62 | 0 | 0.0 | 0.0 | 0.00 | 0.00 | 0.00 | 87 | 1015.5 |
| 20260506031802 | 62 | 0 | 0.0 | 0.0 | 0.00 | 0.00 | 0.00 | 86 | 1015.5 |
| 20260506030923 | 62 | 0 | 0.0 | 0.0 | 0.00 | 0.00 | 0.00 | 86 | 1015.5 |
| 20260506030023 | 63 | 175 | 0.0 | 0.9 | 0.00 | 0.00 | 0.00 | 85 | 1015.5 |
| 20260506025402 | 63 | 175 | 0.0 | 0.9 | 0.00 | 0.00 | 0.00 | 84 | 1015.2 |
| 20260506024502 | 64 | 175 | 0.9 | 1.7 | 0.00 | 0.00 | 0.00 | 84 | 1015.2 |
| 20260506023602 | 64 | 175 | 0.9 | 1.7 | 0.00 | 0.00 | 0.00 | 83 | 1015.4 |
| 20260506022702 | 64 | 175 | 0.9 | 1.7 | 0.00 | 0.00 | 0.00 | 82 | 1015.4 |
| 20260506021802 | 65 | 175 | 0.9 | 1.7 | 0.00 | 0.00 | 0.00 | 82 | 1015.3 |
| 20260506020923 | 65 | 175 | 1.7 | 2.6 | 0.00 | 0.00 | 0.00 | 81 | 1015.2 |
| 20260506020002 | 66 | 175 | 1.7 | 2.6 | 0.00 | 0.00 | 0.00 | 80 | 1015.2 |
| 20260506015402 | 66 | 181 | 1.7 | 2.6 | 0.00 | 0.00 | 0.00 | 80 | 1015.1 |
| 20260506014502 | 66 | 184 | 0.9 | 2.6 | 0.00 | 0.00 | 0.00 | 80 | 1015.1 |
| 20260506013602 | 66 | 135 | 1.7 | 2.6 | 0.00 | 0.00 | 0.00 | 80 | 1014.9 |
| 20260506012702 | 66 | 119 | 1.7 | 2.6 | 0.00 | 0.00 | 0.00 | 79 | 1014.9 |
| 20260506011823 | 66 | 128 | 1.7 | 2.6 | 0.00 | 0.00 | 0.00 | 78 | 1014.9 |
| 20260506010902 | 67 | 125 | 1.7 | 3.5 | 0.00 | 0.00 | 0.00 | 78 | 1014.8 |
| 20260506010002 | 67 | 124 | 1.7 | 2.6 | 0.00 | 0.00 | 0.00 | 77 | 1014.8 |
| 20260506005423 | 67 | 126 | 1.7 | 3.5 | 0.00 | 0.00 | 0.00 | 76 | 1014.6 |
| 20260506004503 | 68 | 135 | 1.7 | 3.5 | 0.00 | 0.00 | 0.00 | 76 | 1014.6 |
| 20260506003623 | 68 | 134 | 1.7 | 3.5 | 0.00 | 0.00 | 0.00 | 75 | 1014.6 |
| 20260506002723 | 68 | 143 | 1.7 | 4.3 | 0.00 | 0.00 | 0.00 | 74 | 1014.6 |
| 20260506001802 | 69 | 147 | 1.7 | 3.5 | 0.00 | 0.00 | 0.00 | 73 | 1014.6 |
| 20260506000902 | 69 | 138 | 1.7 | 4.3 | 0.00 | 0.00 | 0.00 | 71 | 1014.5 |
| 20260506000023 | 70 | 129 | 2.6 | 4.3 | 0.00 | 0.00 | 0.00 | 70 | 1014.5 |
| 20260505235403 | 70 | 125 | 2.6 | 4.3 | 0.00 | 0.00 | 0.00 | 70 | 1014.5 |
| 20260505234502 | 70 | 136 | 2.6 | 7.0 | 0.00 | 0.00 | 0.00 | 69 | 1014.5 |
| 20260505233602 | 71 | 138 | 3.5 | 7.0 | 0.00 | 0.00 | 0.00 | 68 | 1014.4 |
| 20260505232723 | 71 | 134 | 2.6 | 6.1 | 0.00 | 0.00 | 0.00 | 67 | 1014.4 |
| 20260505231802 | 71 | 131 | 3.5 | 6.1 | 0.00 | 0.00 | 0.00 | 66 | 1014.4 |
| 20260505230944 | 72 | 129 | 3.5 | 7.0 | 0.00 | 0.00 | 0.00 | 66 | 1014.4 |
| 20260505230002 | 72 | 128 | 3.5 | 7.0 | 0.00 | 0.00 | 0.00 | 65 | 1014.4 |
| 20260505225402 | 72 | 131 | 3.5 | 7.0 | 0.00 | 0.00 | 0.00 | 65 | 1014.5 |
| 20260505224524 | 72 | 125 | 3.5 | 7.0 | 0.00 | 0.00 | 0.00 | 63 | 1014.5 |
| 20260505223602 | 73 | 128 | 4.3 | 7.0 | 0.00 | 0.00 | 0.00 | 63 | 1014.5 |
| 20260505222702 | 73 | 128 | 4.3 | 10.4 | 0.00 | 0.00 | 0.00 | 63 | 1014.5 |
| 20260505221802 | 73 | 127 | 3.5 | 10.4 | 0.00 | 0.00 | 0.00 | 63 | 1014.4 |
| 20260505220923 | 73 | 140 | 2.6 | 7.0 | 0.00 | 0.00 | 0.00 | 63 | 1014.4 |
| 20260505220002 | 74 | 128 | 3.5 | 9.6 | 0.00 | 0.00 | 0.00 | 62 | 1014.4 |
| 20260505215402 | 74 | 136 | 3.5 | 9.6 | 0.00 | 0.00 | 0.00 | 62 | 1014.5 |
| 20260505214502 | 75 | 151 | 2.6 | 6.1 | 0.00 | 0.00 | 0.00 | 61 | 1014.5 |
| 20260505213603 | 75 | 134 | 3.5 | 7.0 | 0.00 | 0.00 | 0.00 | 61 | 1014.4 |
| 20260505212723 | 76 | 161 | 3.5 | 7.0 | 0.00 | 0.00 | 0.00 | 58 | 1014.4 |
| 20260505211803 | 76 | 137 | 3.5 | 7.0 | 0.00 | 0.00 | 0.00 | 59 | 1014.5 |
| 20260505210924 | 75 | 128 | 4.3 | 10.4 | 0.00 | 0.00 | 0.00 | 59 | 1014.4 |
| 20260505210002 | 75 | 126 | 5.2 | 11.3 | 0.00 | 0.00 | 0.00 | 59 | 1014.4 |
| 20260505205402 | 76 | 123 | 4.3 | 11.3 | 0.00 | 0.00 | 0.00 | 59 | 1014.6 |
| 20260505204523 | 76 | 127 | 4.3 | 7.8 | 0.00 | 0.00 | 0.00 | 59 | 1014.6 |
| 20260505203623 | 76 | 132 | 3.5 | 9.6 | 0.00 | 0.00 | 0.00 | 58 | 1014.5 |
| 20260505202724 | 77 | 146 | 3.5 | 6.1 | 0.00 | 0.00 | 0.00 | 56 | 1014.5 |
| 20260505201824 | 76 | 135 | 4.3 | 8.7 | 0.00 | 0.00 | 0.00 | 58 | 1014.5 |
| 20260505200903 | 77 | 132 | 3.5 | 7.8 | 0.00 | 0.00 | 0.00 | 56 | 1014.9 |
| 20260505200002 | 77 | 124 | 3.5 | 7.8 | 0.00 | 0.00 | 0.00 | 57 | 1014.9 |
| 20260505195402 | 77 | 134 | 3.5 | 7.8 | 0.00 | 0.00 | 0.00 | 55 | 1014.7 |
| 20260505194502 | 78 | 162 | 3.5 | 6.1 | 0.00 | 0.00 | 0.00 | 55 | 1014.7 |
| 20260505193602 | 78 | 161 | 3.5 | 8.7 | 0.00 | 0.00 | 0.00 | 53 | 1015.0 |
| 20260505192702 | 77 | 154 | 3.5 | 10.4 | 0.00 | 0.00 | 0.00 | 55 | 1015.0 |
| 20260505191802 | 77 | 135 | 3.5 | 6.1 | 0.00 | 0.00 | 0.00 | 54 | 1015.2 |
| 20260505190902 | 78 | 146 | 3.5 | 6.1 | 0.00 | 0.00 | 0.00 | 55 | 1015.5 |
| 20260505190003 | 76 | 125 | 4.3 | 8.7 | 0.00 | 0.00 | 0.00 | 55 | 1015.5 |
| 20260505185424 | 77 | 122 | 4.3 | 7.8 | 0.00 | 0.00 | 0.00 | 55 | 1015.5 |
| 20260505184502 | 77 | 139 | 4.3 | 8.7 | 0.00 | 0.00 | 0.00 | 54 | 1015.5 |
| 20260505183602 | 77 | 145 | 3.5 | 8.7 | 0.00 | 0.00 | 0.00 | 55 | 1015.4 |
| 20260505182703 | 76 | 125 | 4.3 | 7.8 | 0.00 | 0.00 | 0.00 | 57 | 1015.4 |
| 20260505181803 | 76 | 125 | 4.3 | 7.8 | 0.00 | 0.00 | 0.00 | 56 | 1015.4 |
| 20260505180902 | 76 | 143 | 3.5 | 7.8 | 0.00 | 0.00 | 0.00 | 54 | 1015.6 |
| 20260505180003 | 78 | 157 | 3.5 | 7.0 | 0.00 | 0.00 | 0.00 | 54 | 1015.6 |
| 20260505175403 | 77 | 134 | 4.3 | 9.6 | 0.00 | 0.00 | 0.00 | 57 | 1015.7 |
| 20260505174503 | 77 | 148 | 2.6 | 5.2 | 0.00 | 0.00 | 0.00 | 55 | 1015.7 |
| 20260505173623 | 78 | 141 | 3.5 | 6.1 | 0.00 | 0.00 | 0.00 | 55 | 1015.9 |
| 20260505172702 | 77 | 145 | 3.5 | 6.1 | 0.00 | 0.00 | 0.00 | 55 | 1015.9 |
| 20260505171824 | 77 | 139 | 3.5 | 7.0 | 0.00 | 0.00 | 0.00 | 54 | 1015.9 |
| 20260505170902 | 77 | 147 | 3.5 | 6.1 | 0.00 | 0.00 | 0.00 | 56 | 1016.0 |
| 20260505170003 | 76 | 130 | 2.6 | 7.0 | 0.00 | 0.00 | 0.00 | 58 | 1016.0 |
| 20260505165403 | 77 | 144 | 2.6 | 6.1 | 0.00 | 0.00 | 0.00 | 57 | 1016.1 |
| 20260505164524 | 77 | 190 | 2.6 | 5.2 | 0.00 | 0.00 | 0.00 | 58 | 1016.1 |
| 20260505163624 | 76 | 149 | 2.6 | 6.1 | 0.00 | 0.00 | 0.00 | 61 | 1016.5 |
| 20260505162703 | 76 | 145 | 2.6 | 6.1 | 0.00 | 0.00 | 0.00 | 58 | 1016.5 |
| 20260505161845 | 75 | 130 | 3.5 | 7.0 | 0.00 | 0.00 | 0.00 | 60 | 1016.5 |
| 20260505160903 | 77 | 148 | 1.7 | 5.2 | 0.00 | 0.00 | 0.00 | 60 | 1016.6 |
| 20260505152703 | 76 | 193 | 2.6 | 7.8 | 0.00 | 0.00 | 0.00 | 58 | 1016.8 |
| 20260505151803 | 75 | 183 | 2.6 | 7.8 | 0.00 | 0.00 | 0.00 | 58 | 1016.7 |
| 20260505150903 | 76 | 202 | 2.6 | 7.8 | 0.00 | 0.00 | 0.00 | 59 | 1016.6 |
| 20260505124503 | 65 | 220 | 0.9 | 4.3 | 0.00 | 0.00 | 0.00 | 84 | 1016.5 |
| 20260505123603 | 63 | 209 | 0.9 | 3.5 | 0.00 | 0.00 | 0.00 | 89 | 1016.5 |
| 20260505122724 | 61 | 214 | 1.7 | 3.5 | 0.00 | 0.00 | 0.00 | 93 | 1016.5 |
| 20260505121803 | 59 | 222 | 1.7 | 3.5 | 0.00 | 0.00 | 0.00 | 97 | 1016.5 |
| 20260505120903 | 58 | 207 | 0.9 | 4.3 | 0.00 | 0.00 | 0.00 | 98 | 1016.2 |
| 20260505120003 | 56 | 225 | 0.0 | 3.5 | 0.00 | 0.00 | 0.00 | 98 | 1016.2 |
| 20260505115403 | 55 | 225 | 0.0 | 3.5 | 0.00 | 0.00 | 0.00 | 98 | 1016.1 |
| 20260505114503 | 54 | 0 | 0.0 | 0.0 | 0.00 | 0.00 | 0.00 | 97 | 1016.1 |
| 20260505113603 | 53 | 0 | 0.0 | 0.0 | 0.00 | 0.00 | 0.00 | 97 | 1016.0 |
| 20260505112703 | 52 | 0 | 0.0 | 0.0 | 0.00 | 0.00 | 0.00 | 97 | 1016.0 |
| 20260505111803 | 52 | 0 | 0.0 | 0.0 | 0.00 | 0.00 | 0.00 | 96 | 1015.8 |
| 20260505110903 | 51 | 0 | 0.0 | 0.0 | 0.00 | 0.00 | 0.00 | 96 | 1015.5 |
| 20260505101824 | 51 | 0 | 0.0 | 0.0 | 0.00 | 0.00 | 0.00 | 96 | 1015.2 |
| 20260505100903 | 51 | 0 | 0.0 | 0.0 | 0.00 | 0.00 | 0.00 | 95 | 1015.1 |
| 20260505100003 | 51 | 0 | 0.0 | 0.0 | 0.00 | 0.00 | 0.00 | 95 | 1015.1 |
| 20260505095403 | 51 | 0 | 0.0 | 0.0 | 0.00 | 0.00 | 0.00 | 95 | 1014.9 |
| 20260505094503 | 52 | 0 | 0.0 | 0.0 | 0.00 | 0.00 | 0.00 | 95 | 1014.9 |
| 20260505093624 | 52 | 0 | 0.0 | 0.0 | 0.00 | 0.00 | 0.00 | 95 | 1014.9 |
| 20260505092703 | 52 | 0 | 0.0 | 0.0 | 0.00 | 0.00 | 0.00 | 95 | 1014.9 |
| 20260505091803 | 52 | 0 | 0.0 | 0.0 | 0.00 | 0.00 | 0.00 | 95 | 1014.9 |
| 20260505090903 | 52 | 0 | 0.0 | 0.0 | 0.00 | 0.00 | 0.00 | 95 | 1014.7 |
| 20260505090003 | 52 | 0 | 0.0 | 0.0 | 0.00 | 0.00 | 0.00 | 95 | 1014.7 |
| 20260505085403 | 52 | 0 | 0.0 | 0.0 | 0.00 | 0.00 | 0.00 | 95 | 1014.5 |
| 20260505084503 | 52 | 0 | 0.0 | 0.0 | 0.00 | 0.00 | 0.00 | 94 | 1014.5 |
| 20260505083603 | 52 | 0 | 0.0 | 0.0 | 0.00 | 0.00 | 0.00 | 94 | 1014.5 |
| 20260505082703 | 52 | 0 | 0.0 | 0.0 | 0.00 | 0.00 | 0.00 | 94 | 1014.5 |
| 20260505081803 | 52 | 0 | 0.0 | 0.0 | 0.00 | 0.00 | 0.00 | 94 | 1014.4 |
| 20260505080903 | 52 | 0 | 0.0 | 0.0 | 0.00 | 0.00 | 0.00 | 93 | 1014.5 |
| 20260505080003 | 53 | 0 | 0.0 | 0.0 | 0.00 | 0.00 | 0.00 | 93 | 1014.5 |
| 20260505075403 | 53 | 0 | 0.0 | 0.0 | 0.00 | 0.00 | 0.00 | 93 | 1014.5 |
| 20260505074524 | 53 | 0 | 0.0 | 0.0 | 0.00 | 0.00 | 0.00 | 93 | 1014.5 |
| 20260505073603 | 53 | 0 | 0.0 | 0.0 | 0.00 | 0.00 | 0.00 | 93 | 1014.5 |
| 20260505072703 | 53 | 0 | 0.0 | 0.0 | 0.00 | 0.00 | 0.00 | 92 | 1014.5 |
| 20260505071824 | 53 | 0 | 0.0 | 0.0 | 0.00 | 0.00 | 0.00 | 92 | 1014.5 |
| 20260505070903 | 54 | 0 | 0.0 | 0.0 | 0.00 | 0.00 | 0.00 | 91 | 1014.6 |